Wilton, MN

7:03 PM CDT on August 25, 2016 (GMT -0500)
Bemidji-Beltrami County

Weather History for KBJI - January, 2013

Change the Weather History Date:

Saturday, January 19, 2013

  Actual Average Record
Temperature  
Mean Temperature 8 °F -  
Max Temperature 26 °F 13 °F 39 °F (1968)
Min Temperature -10 °F -5 °F -38 °F (1970)
Degree Days  
Heating Degree Days 56    
Moisture  
Dew Point 4 °F    
Average Humidity 83    
Maximum Humidity 94    
Minimum Humidity 76    
Precipitation  
Precipitation 0.00 in - - ()
Sea Level Pressure  
Sea Level Pressure 29.85 in    
Wind  
Wind Speed 11 mph (WNW)    
Max Wind Speed 30 mph    
Max Gust Speed 46 mph    
Visibility 6 miles    
Events Snow    
Averages and records for this station are not official NWS values.
T = Trace of Precipitation, MM = Missing Value Source: NWS Daily Summary

Daily Weather History Graph

Daily Weather History Graph

Search for Another Location

Airport or City:

Trip Planner

Search our weather history database for the weather conditions in past years. The results will help you decide how hot, cold, wet, or windy it might be!

Date:

Astronomy

Jan. 19, 2013 Rise Set
Actual Time 7:59 AM CST 5:01 PM CST
Civil Twilight 7:25 AM CST 5:36 PM CST
Nautical Twilight 6:47 AM CST 6:14 PM CST
Astronomical Twilight 6:10 AM CST 6:50 PM CST
Moon 11:33 AM CST (1/19) 1:28 AM CST (1/19)
Length of Visible Light 10h 10m
Length of Day
9h 02m
First Quarter, 57% of the Moon is Illuminated
Jan 19
First Quarter
Jan 26
Full
Feb 3
Last Quarter
Feb 10
New
Feb 17
First Quarter

Hourly Weather History & Observations

Time (CST) Temp. Windchill Dew Point Humidity Pressure Visibility Wind Dir Wind Speed Gust Speed Precip Events Conditions
12:15 AM 19.4 °F - 16.7 °F 89% 29.66 in 10.0 mi Calm Calm - N/A   Overcast
12:35 AM 19.6 °F - 17.1 °F 90% 29.65 in 10.0 mi Calm Calm - N/A   Overcast
12:55 AM 20.1 °F - 17.6 °F 90% 29.66 in 10.0 mi Calm Calm - N/A   Overcast
1:15 AM 20.7 °F 15.8 °F 17.8 °F 89% 29.64 in 10.0 mi SSE 3.5 mph - N/A   Overcast
1:35 AM 20.8 °F - 18.1 °F 89% 29.65 in 10.0 mi Calm Calm - N/A   Overcast
1:55 AM 21.0 °F - 18.3 °F 89% 29.65 in 10.0 mi Calm Calm - N/A   Overcast
2:15 AM 21.0 °F 16.2 °F 18.5 °F 90% 29.64 in 10.0 mi ESE 3.5 mph - N/A   Overcast
2:35 AM 20.1 °F 15.2 °F 18.0 °F 91% 29.63 in 7.0 mi SSE 3.5 mph - N/A   Overcast
2:55 AM 19.8 °F - 17.8 °F 92% 29.63 in 7.0 mi Calm Calm - N/A   Overcast
3:15 AM 19.9 °F - 17.8 °F 91% 29.62 in 7.0 mi Calm Calm - N/A   Overcast
3:35 AM 21.4 °F 15.1 °F 19.2 °F 91% 29.61 in 7.0 mi SSW 4.6 mph - N/A   Overcast
3:55 AM 22.1 °F 14.7 °F 20.1 °F 92% 29.60 in 7.0 mi South 5.8 mph - N/A   Overcast
4:15 AM 22.6 °F 15.3 °F 20.8 °F 93% 29.60 in 7.0 mi SSW 5.8 mph - N/A   Overcast
4:35 AM 23.0 °F 15.8 °F 21.2 °F 93% 29.59 in 7.0 mi SSW 5.8 mph - N/A   Overcast
4:55 AM 23.0 °F 17.0 °F 21.2 °F 93% 29.58 in 7.0 mi SSW 4.6 mph - N/A   Overcast
5:15 AM 22.6 °F 16.5 °F 21.0 °F 93% 29.57 in 7.0 mi SW 4.6 mph - N/A   Scattered Clouds
5:35 AM 22.8 °F 15.5 °F 21.4 °F 94% 29.57 in 7.0 mi SW 5.8 mph - N/A   Clear
6:55 AM 25.2 °F 12.9 °F 22.8 °F 91% 29.59 in 10.0 mi West 15.0 mph - N/A   Overcast
7:15 AM 26.2 °F 13.8 °F 23.4 °F 89% 29.59 in 10.0 mi West 16.1 mph 25.3 mph N/A   Overcast
7:55 AM 26.1 °F 13.1 °F 22.8 °F 88% 29.60 in 10.0 mi WNW 17.3 mph 23.0 mph N/A   Overcast
8:15 AM 26.1 °F 14.5 °F 22.5 °F 86% 29.60 in 10.0 mi West 13.8 mph - N/A   Overcast
8:35 AM 25.7 °F 12.3 °F 21.9 °F 86% 29.61 in 10.0 mi WNW 18.4 mph 26.5 mph N/A   Overcast
9:35 AM 21.9 °F 6.9 °F 19.0 °F 89% 29.66 in 4.0 mi WNW 19.6 mph 27.6 mph N/A   Overcast
9:55 AM 17.8 °F 1.1 °F 14.4 °F 86% 29.69 in 2.0 mi WNW 20.7 mph 32.2 mph N/A Snow Light Snow
10:15 AM 15.1 °F -3.3 °F 11.3 °F 85% 29.70 in 3.0 mi NW 23.0 mph 28.8 mph N/A Snow Light Snow
10:35 AM 14.2 °F -4.5 °F 9.5 °F 82% 29.72 in 3.0 mi WNW 23.0 mph - N/A Snow Light Snow
10:55 AM 13.6 °F -6.3 °F 8.6 °F 80% 29.73 in 1.2 mi WNW 26.5 mph 32.2 mph N/A Snow Light Snow
11:15 AM 12.6 °F -7.8 °F 7.3 °F 80% 29.73 in 1.2 mi WNW 26.5 mph 32.2 mph N/A Snow Light Snow
11:35 AM 10.9 °F -8.3 °F 5.7 °F 79% 29.75 in 1.8 mi WNW 21.9 mph 27.6 mph N/A Snow Light Snow
11:55 AM 9.1 °F -11.2 °F 4.1 °F 80% 29.75 in 1.2 mi WNW 23.0 mph 28.8 mph N/A Snow Light Snow
12:15 PM 7.9 °F -12.8 °F 2.7 °F 79% 29.76 in 1.0 mi West 23.0 mph 29.9 mph N/A   Haze
12:35 PM 6.6 °F -16.8 °F 1.0 °F 78% 29.76 in 0.8 mi NW 29.9 mph 35.7 mph N/A Snow Light Snow
12:55 PM 5.4 °F -18.5 °F -0.6 °F 76% 29.78 in 0.8 mi NW 29.9 mph 46.0 mph N/A   Haze
1:55 PM 2.8 °F -21.6 °F -3.3 °F 76% 29.81 in 0.5 mi WNW 28.8 mph 38.0 mph N/A Snow Light Snow
2:15 PM 2.3 °F -21.1 °F -3.8 °F 76% 29.82 in 0.8 mi WNW 25.3 mph 36.8 mph N/A Snow Light Snow
2:35 PM 2.1 °F -21.4 °F -3.5 °F 77% 29.84 in 0.5 mi WNW 25.3 mph 35.7 mph N/A Snow Light Snow
2:55 PM 1.8 °F -22.3 °F -3.8 °F 77% 29.86 in 0.8 mi WNW 26.5 mph 34.5 mph N/A Snow Light Snow
3:15 PM 1.4 °F -23.9 °F -4.4 °F 77% 29.87 in 0.5 mi WNW 29.9 mph 35.7 mph N/A Snow Light Snow
3:35 PM 1.4 °F -21.4 °F -4.0 °F 78% 29.90 in 0.8 mi NW 23.0 mph 28.8 mph N/A Snow Light Snow
3:55 PM 1.4 °F -21.4 °F -4.4 °F 77% 29.92 in 1.2 mi NW 23.0 mph 32.2 mph N/A   Haze
4:15 PM 1.4 °F -21.4 °F -4.4 °F 77% 29.94 in 1.5 mi NW 23.0 mph 31.1 mph N/A   Haze
4:35 PM 1.0 °F -21.4 °F -4.2 °F 79% 29.96 in 1.2 mi NW 21.9 mph 31.1 mph N/A   Haze
4:55 PM 0.7 °F -23.3 °F -4.2 °F 80% 29.98 in 1.2 mi NW 25.3 mph 28.8 mph N/A   Haze
5:15 PM 0.1 °F -23.1 °F -4.9 °F 79% 30.00 in 1.8 mi NW 23.0 mph 33.4 mph N/A   Haze
5:35 PM -0.4 °F -25.2 °F -5.3 °F 80% 30.02 in 1.5 mi NW 26.5 mph 31.1 mph N/A   Haze
5:55 PM -0.4 °F -22.8 °F -5.3 °F 80% 30.03 in 3.0 mi NW 20.7 mph 27.6 mph N/A   Haze
6:15 PM -0.9 °F -23.0 °F -5.8 °F 80% 30.05 in 4.0 mi NW 19.6 mph 27.6 mph N/A   Haze
6:35 PM -1.5 °F -24.3 °F -6.2 °F 80% 30.07 in 4.0 mi WNW 20.7 mph - N/A   Haze
6:55 PM -2.2 °F -26.2 °F -7.1 °F 80% 30.09 in 4.0 mi NW 23.0 mph - N/A   Haze
7:15 PM -2.7 °F -24.2 °F -7.6 °F 80% 30.10 in 4.0 mi NW 17.3 mph 25.3 mph N/A   Haze
7:35 PM -3.1 °F -25.8 °F -8.0 °F 80% 30.12 in 5.0 mi WNW 19.6 mph 23.0 mph N/A   Haze
7:55 PM -3.8 °F -27.3 °F -8.9 °F 79% 30.13 in 4.0 mi NW 20.7 mph 26.5 mph N/A   Haze
8:15 PM -4.4 °F -25.6 °F -9.6 °F 78% 30.14 in 7.0 mi NW 16.1 mph 21.9 mph N/A   Overcast
8:35 PM -4.5 °F -27.1 °F -9.9 °F 78% 30.15 in 10.0 mi NW 18.4 mph 24.2 mph N/A   Overcast
8:55 PM -5.1 °F -25.9 °F -10.5 °F 78% 30.16 in 10.0 mi NW 15.0 mph 23.0 mph N/A   Overcast
9:15 PM -5.6 °F -27.3 °F -11.0 °F 77% 30.16 in 10.0 mi NW 16.1 mph 20.7 mph N/A   Scattered Clouds
9:35 PM -6.2 °F -25.7 °F -11.2 °F 79% 30.17 in 10.0 mi NW 12.7 mph - N/A   Scattered Clouds
9:55 PM -6.9 °F -26.6 °F -11.9 °F 79% 30.18 in 10.0 mi NW 12.7 mph - N/A   Clear
10:15 PM -7.4 °F -27.3 °F -12.5 °F 79% 30.18 in 10.0 mi NW 12.7 mph - N/A   Clear
10:35 PM -7.8 °F -27.7 °F -12.6 °F 79% 30.19 in 10.0 mi NW 12.7 mph - N/A   Clear
10:55 PM -8.3 °F -27.5 °F -13.2 °F 79% 30.20 in 10.0 mi NW 11.5 mph - N/A   Clear
11:15 PM -8.9 °F -27.2 °F -13.7 °F 79% 30.19 in 10.0 mi NW 10.4 mph - N/A   Clear
11:35 PM -9.8 °F -24.7 °F -14.4 °F 80% 30.19 in 10.0 mi NW 6.9 mph - N/A   Clear
11:55 PM -10.5 °F -26.9 °F -14.8 °F 81% 30.20 in 10.0 mi West 8.1 mph - N/A   Clear